Dalhart, TX

5:57 AM CDT on July 26, 2016 (GMT -0500)
Dalhart Municipal

Weather History for KDHT - June, 2013

Change the Weather History Date:

Thursday, June 13, 2013

  Actual Average Record
Temperature  
Mean Temperature 82 °F 72 °F  
Max Temperature 98 °F 87 °F 103 °F (2011)
Min Temperature 66 °F 57 °F 49 °F (2005)
Degree Days  
Heating Degree Days 0 0  
Month to date heating degree days 0 9  
Since 1 June heating degree days 0 9  
Since 1 July heating degree days 4400 4726  
Cooling Degree Days 17 7  
Month to date cooling degree days 135 78  
Year to date cooling degree days 289 150  
Since 1 June cooling degree days 135 78  
Growing Degree Days 32 (Base 50)    
Moisture  
Dew Point 51 °F    
Average Humidity 43    
Maximum Humidity 68    
Minimum Humidity 17    
Precipitation  
Precipitation 0.00 in 0.07 in 0.86 in (1964)
Month to date precipitation 0.06 1.02  
Year to date precipitation 1.36 6.43  
Snow  
Snow 0.00 in 0.00 in T in (1954)
Month to date snowfall 0.0 0.0  
Since 1 June snowfall 0.0 0.0  
Since 1 July snowfall 21.6 18.9  
Snow Depth 0.00 in    
Sea Level Pressure  
Sea Level Pressure 29.88 in    
Wind  
Wind Speed 15 mph (South)    
Max Wind Speed 29 mph    
Max Gust Speed 40 mph    
Visibility 10 miles    
Events      
T = Trace of Precipitation, MM = Missing Value Source: NWS Daily Summary

Daily Weather History Graph

Daily Weather History Graph

Search for Another Location

Airport or City:

Trip Planner

Search our weather history database for the weather conditions in past years. The results will help you decide how hot, cold, wet, or windy it might be!

Date:

Astronomy

Jun. 13, 2013 Rise Set
Actual Time 6:32 AM CDT 9:08 PM CDT
Civil Twilight 6:02 AM CDT 9:38 PM CDT
Nautical Twilight 5:25 AM CDT 10:15 PM CDT
Astronomical Twilight 4:43 AM CDT 10:57 PM CDT
Moon 11:04 AM CDT (6/13) No Moon Set
Length of Visible Light 15h 35m
Length of Day
14h 35m
Waxing Crescent, 22% of the Moon is Illuminated
Jun 13
Waxing Crescent
Jun 16
First Quarter
Jun 23
Full
Jun 29
Last Quarter
Jul 8
New

Hourly Weather History & Observations

Time (CDT) Temp. Heat Index Dew Point Humidity Pressure Visibility Wind Dir Wind Speed Gust Speed Precip Events Conditions
12:53 AM 75.9 °F - 48.0 °F 37% 29.88 in 10.0 mi South 12.7 mph - N/A   Clear
1:53 AM 75.0 °F - 51.1 °F 43% 29.89 in 10.0 mi South 12.7 mph - N/A   Clear
2:53 AM 73.0 °F - 54.0 °F 51% 29.90 in 10.0 mi South 11.5 mph - N/A   Clear
3:53 AM 71.1 °F - 55.0 °F 57% 29.91 in 10.0 mi SSW 10.4 mph - N/A   Clear
4:53 AM 69.1 °F - 55.0 °F 61% 29.91 in 10.0 mi SW 10.4 mph - N/A   Clear
5:53 AM 68.0 °F - 55.9 °F 65% 29.91 in 10.0 mi SSW 9.2 mph - N/A   Clear
6:53 AM 66.9 °F - 55.9 °F 68% 29.92 in 10.0 mi South 8.1 mph - N/A   Clear
7:53 AM 72.0 °F - 57.0 °F 59% 29.93 in 10.0 mi South 9.2 mph - N/A   Clear
8:53 AM 78.1 °F - 57.9 °F 50% 29.93 in 10.0 mi SSW 13.8 mph - N/A   Clear
9:53 AM 82.0 °F 82.0 °F 57.9 °F 44% 29.94 in 10.0 mi SSW 15.0 mph - N/A   Clear
10:53 AM 86.0 °F 84.9 °F 57.0 °F 37% 29.94 in 10.0 mi SSW 13.8 mph 21.9 mph N/A   Clear
11:53 AM 90.0 °F - 50.0 °F 25% 29.92 in 10.0 mi SSW 18.4 mph 28.8 mph N/A   Clear
12:53 PM 91.9 °F - 50.0 °F 24% 29.91 in 10.0 mi South 15.0 mph 24.2 mph N/A   Clear
1:53 PM 95.0 °F - 45.0 °F 18% 29.89 in 10.0 mi South 18.4 mph 24.2 mph N/A   Clear
2:53 PM 96.1 °F - 45.0 °F 17% 29.86 in 10.0 mi South 17.3 mph 25.3 mph N/A   Clear
3:53 PM 98.1 °F - 46.9 °F 18% 29.83 in 9.0 mi South 24.2 mph 40.3 mph N/A   Clear
4:53 PM 97.0 °F - 46.0 °F 18% 29.82 in 10.0 mi South 23.0 mph 33.4 mph N/A   Clear
5:53 PM 96.1 °F - 46.0 °F 18% 29.81 in 10.0 mi South 24.2 mph 31.1 mph N/A   Clear
6:53 PM 95.0 °F - 45.0 °F 18% 29.80 in 10.0 mi SSE 21.9 mph 28.8 mph N/A   Clear
7:53 PM 91.9 °F - 46.9 °F 21% 29.81 in 10.0 mi SSE 17.3 mph 26.5 mph N/A   Clear
8:53 PM 88.0 °F - 46.9 °F 24% 29.81 in 10.0 mi South 16.1 mph - N/A   Clear
9:53 PM 84.0 °F - 50.0 °F 31% 29.83 in 10.0 mi South 13.8 mph - N/A   Clear
10:53 PM 82.0 °F - 51.1 °F 34% 29.84 in 10.0 mi South 12.7 mph - N/A   Clear
11:53 PM 80.1 °F 79.9 °F 53.1 °F 39% 29.86 in 10.0 mi South 15.0 mph - N/A   Clear